User: anonymous
Location: Montr�al
(45.5000°N, 73.5830°W)
Time: 06:43:14
(UTC-04:00)
Language:

Cosmos 1470 Rocket - Orbit

View from above orbital plane
View from above orbital plane
View from above satellite
View from above satellite

Ground track
Ground track

The orbit data is extracted from the following two-line orbital elements,

1 14148U 83061B   14230.90419600  .00000220  00000-0  24211-4 0  7227
2 14148 082.5218 157.1096 0023238 135.5493 290.0403 14.82697201681691
Epoch (UTC): 18 August 2014 21:42:02
Eccentricity: 0.0023238
inclination: 82.5218°
perigee height: 604 km
apogee height: 637 km
right ascension of ascending node: 157.1096°
argument of perigee: 135.5493°
revolutions per day: 14.82697201
mean anomaly at epoch: 290.0403°
orbit number at epoch: 68169

The dashed part of the orbit path shows where the satellite is in the earth's shadow,  

DLR